Location: Newark
(44.2764°N, 5.2753°E)
Time: 20:59:40
(UTC+00:00)

ISS - Pass Details

Date: 27 January 2020
Orbit: 415 x 423 km, 51.6° (Epoch: 28 February)

Event Time Altitude Azimuth Distance (km) Brightness Sun altitude
Rises 18:09:16 0° 277° (W) 2,378 1.5 -15.9°
Reaches altitude 10° 18:11:36 10° 290° (WNW) 1,513 0.0 -16.3°
Maximum altitude 18:14:31 26° 349° (N) 882 -2.1 -16.8°
Enters shadow 18:15:27 23° 17° (NNE) 966 -2.2 -16.9°
